| time (UTC) | temp C | wind direction | speed KPH | gust KPH | rain 1hr cm | rain 24hr cm | rain mn cm | humidity % | barometer mb |
| 20260504215010 | 18 | 300 | 1.6 | 11.3 | 0.00 | 0.00 | 0.00 | 45 | 1016.2 |
| 20260504214522 | 18 | 157 | 4.8 | 19.3 | 0.00 | 0.00 | 0.00 | 43 | 1016.2 |
| 20260504214006 | 18 | 30 | 8.0 | 19.3 | 0.00 | 0.00 | 0.00 | 44 | 1016.1 |
| 20260504213506 | 18 | 72 | 3.2 | 14.5 | 0.00 | 0.00 | 0.00 | 45 | 1016.2 |
| 20260504213018 | 18 | 355 | 4.8 | 14.5 | 0.00 | 0.00 | 0.00 | 43 | 1016.2 |
| 20260504212510 | 18 | 157 | 4.8 | 11.3 | 0.00 | 0.00 | 0.00 | 43 | 1016.2 |
| 20260504212011 | 18 | 19 | 0.0 | 8.0 | 0.00 | 0.00 | 0.00 | 41 | 1016.2 |
| 20260504211515 | 19 | 298 | 3.2 | 9.7 | 0.00 | 0.00 | 0.00 | 44 | 1016.3 |
| 20260504211011 | 19 | 79 | 3.2 | 9.7 | 0.00 | 0.00 | 0.00 | 43 | 1016.3 |
| 20260504210507 | 18 | 225 | 0.0 | 8.0 | 0.00 | 0.00 | 0.00 | 47 | 1016.5 |
| 20260504210016 | 19 | 229 | 1.6 | 8.0 | 0.00 | 0.00 | 0.00 | 44 | 1016.4 |
| 20260504205508 | 19 | 107 | 0.0 | 8.0 | 0.00 | 0.00 | 0.00 | 46 | 1016.4 |
| 20260504205009 | 19 | 289 | 0.0 | 4.8 | 0.00 | 0.00 | 0.00 | 47 | 1016.5 |
| 20260504204536 | 19 | 240 | 0.0 | 4.8 | 0.00 | 0.00 | 0.00 | 46 | 1016.5 |
| 20260504204010 | 19 | 269 | 0.0 | 8.0 | 0.00 | 0.00 | 0.00 | 44 | 1016.6 |
| 20260504203510 | 18 | 19 | 1.6 | 8.0 | 0.00 | 0.00 | 0.00 | 44 | 1016.6 |
| 20260504203028 | 18 | 119 | 0.0 | 4.8 | 0.00 | 0.00 | 0.00 | 42 | 1016.6 |
| 20260504202510 | 19 | 27 | 0.0 | 6.4 | 0.00 | 0.00 | 0.00 | 44 | 1016.6 |
| 20260504202008 | 19 | 331 | 1.6 | 11.3 | 0.00 | 0.00 | 0.00 | 45 | 1016.6 |
| 20260504201527 | 19 | 49 | 1.6 | 11.3 | 0.00 | 0.00 | 0.00 | 44 | 1016.7 |
| 20260504201009 | 20 | 116 | 1.6 | 9.7 | 0.00 | 0.00 | 0.00 | 48 | 1016.8 |
| 20260504200511 | 19 | 259 | 1.6 | 9.7 | 0.00 | 0.00 | 0.00 | 50 | 1016.7 |
| 20260504200024 | 19 | 254 | 3.2 | 9.7 | 0.00 | 0.00 | 0.00 | 51 | 1016.8 |
| 20260504195506 | 18 | 201 | 1.6 | 6.4 | 0.00 | 0.00 | 0.00 | 50 | 1016.9 |
| 20260504195010 | 18 | 253 | 3.2 | 6.4 | 0.00 | 0.00 | 0.00 | 53 | 1017.0 |
| 20260504194520 | 18 | 263 | 0.0 | 6.4 | 0.00 | 0.00 | 0.00 | 52 | 1017.1 |
| 20260504194013 | 19 | 263 | 3.2 | 6.4 | 0.00 | 0.00 | 0.00 | 52 | 1017.2 |
| 20260504193511 | 18 | 254 | 1.6 | 6.4 | 0.00 | 0.00 | 0.00 | 54 | 1017.3 |
| 20260504193022 | 18 | 113 | 1.6 | 6.4 | 0.00 | 0.00 | 0.00 | 54 | 1017.4 |
| 20260504192510 | 19 | 348 | 3.2 | 6.4 | 0.00 | 0.00 | 0.00 | 48 | 1017.4 |
| 20260504192013 | 19 | 215 | 1.6 | 8.0 | 0.00 | 0.00 | 0.00 | 49 | 1017.5 |
| 20260504191522 | 18 | 55 | 3.2 | 8.0 | 0.00 | 0.00 | 0.00 | 51 | 1017.6 |
| 20260504191008 | 18 | 296 | 1.6 | 6.4 | 0.00 | 0.00 | 0.00 | 55 | 1017.6 |
| 20260504190503 | 18 | 236 | 0.0 | 8.0 | 0.00 | 0.00 | 0.00 | 52 | 1017.7 |
| 20260504190006 | 18 | 71 | 3.2 | 8.0 | 0.00 | 0.00 | 0.00 | 51 | 1017.8 |
| 20260504185503 | 20 | 221 | 1.6 | 6.4 | 0.00 | 0.00 | 0.00 | 50 | 1017.9 |
| 20260504185005 | 20 | 265 | 1.6 | 6.4 | 0.00 | 0.00 | 0.00 | 52 | 1017.9 |
| 20260504184506 | 19 | 249 | 1.6 | 6.4 | 0.00 | 0.00 | 0.00 | 52 | 1017.9 |
| 20260504184003 | 19 | 211 | 0.0 | 6.4 | 0.00 | 0.00 | 0.00 | 51 | 1017.9 |
| 20260504183502 | 20 | 251 | 3.2 | 9.7 | 0.00 | 0.00 | 0.00 | 48 | 1018.0 |
| 20260504183003 | 20 | 232 | 1.6 | 9.7 | 0.00 | 0.00 | 0.00 | 49 | 1018.0 |
| 20260504182502 | 20 | 242 | 0.0 | 6.4 | 0.00 | 0.00 | 0.00 | 49 | 1018.0 |
| 20260504182003 | 19 | 197 | 1.6 | 8.0 | 0.00 | 0.00 | 0.00 | 48 | 1018.0 |
| 20260504181504 | 19 | 242 | 1.6 | 9.7 | 0.00 | 0.00 | 0.00 | 46 | 1018.1 |
| 20260504181002 | 19 | 281 | 4.8 | 12.9 | 0.00 | 0.00 | 0.00 | 50 | 1018.0 |
| 20260504180504 | 20 | 214 | 1.6 | 12.9 | 0.00 | 0.00 | 0.00 | 47 | 1018.2 |
| 20260504180004 | 20 | 200 | 0.0 | 8.0 | 0.00 | 0.00 | 0.00 | 47 | 1018.2 |
| 20260504175503 | 19 | 267 | 1.6 | 8.0 | 0.00 | 0.00 | 0.00 | 50 | 1018.2 |
| 20260504175003 | 20 | 298 | 3.2 | 8.0 | 0.00 | 0.00 | 0.00 | 49 | 1018.3 |
| 20260504174503 | 20 | 252 | 3.2 | 6.4 | 0.00 | 0.00 | 0.00 | 52 | 1018.3 |
| 20260504174003 | 19 | 253 | 3.2 | 6.4 | 0.00 | 0.00 | 0.00 | 48 | 1018.3 |
| 20260504173504 | 19 | 251 | 1.6 | 6.4 | 0.00 | 0.00 | 0.00 | 48 | 1018.4 |
| 20260504173004 | 19 | 241 | 0.0 | 6.4 | 0.00 | 0.00 | 0.00 | 47 | 1018.4 |
| 20260504172503 | 18 | 276 | 1.6 | 11.3 | 0.00 | 0.00 | 0.00 | 50 | 1018.5 |
| 20260504172006 | 18 | 192 | 1.6 | 11.3 | 0.00 | 0.00 | 0.00 | 46 | 1018.5 |
| 20260504171507 | 18 | 290 | 3.2 | 11.3 | 0.00 | 0.00 | 0.00 | 46 | 1018.4 |
| 20260504171005 | 18 | 240 | 1.6 | 9.7 | 0.00 | 0.00 | 0.00 | 47 | 1018.5 |
| 20260504170504 | 18 | 302 | 3.2 | 8.0 | 0.00 | 0.00 | 0.00 | 48 | 1018.4 |
| 20260504151006 | 15 | 115 | 1.6 | 9.7 | 0.00 | 0.00 | 0.00 | 54 | 1019.8 |
| 20260504150504 | 15 | 202 | 3.2 | 12.9 | 0.00 | 0.00 | 0.00 | 55 | 1019.8 |
| 20260504141003 | 14 | 246 | 3.2 | 9.7 | 0.00 | 0.00 | 0.00 | 56 | 1019.7 |
| 20260504140503 | 14 | 298 | 3.2 | 9.7 | 0.00 | 0.00 | 0.00 | 53 | 1019.8 |
| 20260504130506 | 11 | 225 | 0.0 | 6.4 | 0.00 | 0.00 | 0.00 | 64 | 1018.9 |
| 20260504110510 | 3 | 288 | 0.0 | 1.6 | 0.00 | 0.00 | 0.00 | 88 | 1018.2 |
| 20260504100504 | 3 | 288 | 0.0 | 3.2 | 0.00 | 0.00 | 0.00 | 82 | 1018.0 |
| 20260504082006 | 0 | 288 | 0.0 | 0.0 | 0.00 | 0.00 | 0.00 | 89 | 1018.4 |
| 20260504081519 | 0 | 288 | 0.0 | 0.0 | 0.00 | 0.00 | 0.00 | 89 | 1018.3 |
| 20260504081008 | 0 | 288 | 0.0 | 0.0 | 0.00 | 0.00 | 0.00 | 89 | 1018.2 |
| 20260504080507 | 0 | 288 | 0.0 | 0.0 | 0.00 | 0.00 | 0.00 | 89 | 1018.3 |
| 20260504050504 | 1 | 288 | 0.0 | 0.0 | 0.00 | 0.00 | 0.00 | 83 | 1019.2 |
| 20260504050006 | 1 | 288 | 0.0 | 0.0 | 0.00 | 0.00 | 0.00 | 83 | 1019.2 |
| 20260504045506 | 1 | 288 | 0.0 | 0.0 | 0.00 | 0.00 | 0.00 | 82 | 1019.2 |
| 20260504045004 | 1 | 288 | 0.0 | 0.0 | 0.00 | 0.00 | 0.00 | 83 | 1019.1 |
| 20260504044509 | 1 | 288 | 0.0 | 0.0 | 0.00 | 0.00 | 0.00 | 83 | 1019.1 |
| 20260504044006 | 1 | 288 | 0.0 | 0.0 | 0.00 | 0.00 | 0.00 | 84 | 1019.1 |
| 20260504043506 | 1 | 288 | 0.0 | 0.0 | 0.00 | 0.00 | 0.00 | 84 | 1019.0 |
| 20260504043034 | 1 | 288 | 0.0 | 0.0 | 0.00 | 0.00 | 0.00 | 84 | 1019.0 |
| 20260504042505 | 1 | 288 | 0.0 | 0.0 | 0.00 | 0.00 | 0.00 | 83 | 1019.0 |
| 20260504042007 | 1 | 288 | 0.0 | 0.0 | 0.00 | 0.00 | 0.00 | 84 | 1019.0 |
| 20260504041519 | 1 | 288 | 0.0 | 0.0 | 0.00 | 0.00 | 0.00 | 83 | 1018.9 |
| 20260504041005 | 2 | 288 | 0.0 | 0.0 | 0.00 | 0.00 | 0.00 | 82 | 1019.0 |
| 20260504040506 | 2 | 288 | 0.0 | 0.0 | 0.00 | 0.00 | 0.00 | 81 | 1019.0 |
| 20260504040021 | 2 | 288 | 0.0 | 0.0 | 0.00 | 0.00 | 0.00 | 81 | 1018.9 |
| 20260504035506 | 2 | 288 | 0.0 | 0.0 | 0.00 | 0.00 | 0.00 | 81 | 1018.8 |
| 20260504035003 | 2 | 288 | 0.0 | 0.0 | 0.00 | 0.00 | 0.00 | 80 | 1018.9 |
| 20260504034516 | 2 | 288 | 0.0 | 0.0 | 0.00 | 0.00 | 0.00 | 80 | 1018.9 |
| 20260504034011 | 2 | 288 | 0.0 | 0.0 | 0.00 | 0.00 | 0.00 | 80 | 1018.8 |
| 20260504033506 | 2 | 288 | 0.0 | 0.0 | 0.00 | 0.00 | 0.00 | 81 | 1018.7 |
| 20260504033010 | 2 | 288 | 0.0 | 0.0 | 0.00 | 0.00 | 0.00 | 79 | 1018.6 |
| 20260504032508 | 2 | 288 | 0.0 | 0.0 | 0.00 | 0.00 | 0.00 | 79 | 1018.6 |
| 20260504032008 | 2 | 288 | 0.0 | 0.0 | 0.00 | 0.00 | 0.00 | 78 | 1018.5 |
| 20260504031510 | 2 | 288 | 0.0 | 0.0 | 0.00 | 0.00 | 0.00 | 79 | 1018.5 |
| 20260504031008 | 2 | 288 | 0.0 | 0.0 | 0.00 | 0.00 | 0.00 | 80 | 1018.5 |
| 20260504030508 | 2 | 288 | 0.0 | 0.0 | 0.00 | 0.00 | 0.00 | 78 | 1018.6 |
| 20260504030026 | 2 | 288 | 0.0 | 0.0 | 0.00 | 0.00 | 0.00 | 79 | 1018.7 |
| 20260504025510 | 2 | 288 | 0.0 | 0.0 | 0.00 | 0.00 | 0.00 | 79 | 1018.6 |
| 20260504025006 | 2 | 288 | 0.0 | 0.0 | 0.00 | 0.00 | 0.00 | 76 | 1018.6 |
| 20260504024524 | 2 | 288 | 0.0 | 0.0 | 0.00 | 0.00 | 0.00 | 78 | 1018.6 |
| 20260504024004 | 2 | 288 | 0.0 | 0.0 | 0.00 | 0.00 | 0.00 | 76 | 1018.8 |
| 20260504023507 | 3 | 288 | 0.0 | 0.0 | 0.00 | 0.00 | 0.00 | 75 | 1019.0 |
| 20260504023022 | 3 | 288 | 0.0 | 0.0 | 0.00 | 0.00 | 0.00 | 76 | 1019.1 |
| 20260504022507 | 3 | 288 | 0.0 | 0.0 | 0.00 | 0.00 | 0.00 | 75 | 1018.9 |
| 20260504022004 | 3 | 288 | 0.0 | 0.0 | 0.00 | 0.00 | 0.00 | 75 | 1018.9 |
| 20260504021521 | 3 | 288 | 0.0 | 0.0 | 0.00 | 0.00 | 0.00 | 73 | 1019.0 |
| 20260504021006 | 3 | 288 | 0.0 | 0.0 | 0.00 | 0.00 | 0.00 | 74 | 1018.9 |
| 20260504020503 | 3 | 288 | 0.0 | 0.0 | 0.00 | 0.00 | 0.00 | 73 | 1018.9 |
| 20260504020014 | 3 | 288 | 0.0 | 0.0 | 0.00 | 0.00 | 0.00 | 75 | 1018.7 |
| 20260504015510 | 3 | 288 | 0.0 | 3.2 | 0.00 | 0.00 | 0.00 | 73 | 1018.6 |
| 20260504015007 | 3 | 288 | 0.0 | 3.2 | 0.00 | 0.00 | 0.00 | 74 | 1018.6 |
| 20260504014514 | 3 | 288 | 0.0 | 1.6 | 0.00 | 0.00 | 0.00 | 73 | 1018.5 |
| 20260504014007 | 4 | 288 | 0.0 | 0.0 | 0.00 | 0.00 | 0.00 | 72 | 1018.4 |
| 20260504013507 | 4 | 288 | 0.0 | 0.0 | 0.00 | 0.00 | 0.00 | 70 | 1018.3 |
| 20260504013016 | 4 | 288 | 0.0 | 0.0 | 0.00 | 0.00 | 0.00 | 70 | 1018.4 |
| 20260504012507 | 4 | 288 | 0.0 | 0.0 | 0.00 | 0.00 | 0.00 | 70 | 1018.4 |
| 20260504012008 | 4 | 288 | 0.0 | 1.6 | 0.00 | 0.00 | 0.00 | 69 | 1018.3 |
| 20260504011526 | 5 | 288 | 0.0 | 1.6 | 0.00 | 0.00 | 0.00 | 68 | 1018.2 |
| 20260504011007 | 5 | 288 | 0.0 | 1.6 | 0.00 | 0.00 | 0.00 | 66 | 1018.2 |
| 20260504010507 | 5 | 288 | 0.0 | 1.6 | 0.00 | 0.00 | 0.00 | 65 | 1018.2 |
| 20260504010025 | 5 | 288 | 0.0 | 3.2 | 0.00 | 0.00 | 0.00 | 64 | 1018.2 |
| 20260504005509 | 6 | 288 | 0.0 | 3.2 | 0.00 | 0.00 | 0.00 | 66 | 1018.2 |
| 20260504005009 | 6 | 288 | 0.0 | 3.2 | 0.00 | 0.00 | 0.00 | 66 | 1018.1 |
| 20260504004524 | 6 | 288 | 0.0 | 3.2 | 0.00 | 0.00 | 0.00 | 63 | 1018.0 |
| 20260504004007 | 6 | 288 | 0.0 | 3.2 | 0.00 | 0.00 | 0.00 | 59 | 1018.1 |
| 20260504003507 | 7 | 288 | 0.0 | 3.2 | 0.00 | 0.00 | 0.00 | 59 | 1018.1 |
| 20260504003018 | 7 | 288 | 0.0 | 1.6 | 0.00 | 0.00 | 0.00 | 57 | 1018.1 |
| 20260504002506 | 7 | 288 | 0.0 | 1.6 | 0.00 | 0.00 | 0.00 | 61 | 1018.1 |
| 20260504002014 | 7 | 288 | 0.0 | 3.2 | 0.00 | 0.00 | 0.00 | 55 | 1018.0 |
| 20260504001516 | 7 | 288 | 0.0 | 3.2 | 0.00 | 0.00 | 0.00 | 57 | 1018.1 |
| 20260504001007 | 8 | 288 | 0.0 | 1.6 | 0.00 | 0.00 | 0.00 | 57 | 1018.0 |
| 20260504000508 | 8 | 288 | 0.0 | 3.2 | 0.00 | 0.00 | 0.00 | 57 | 1018.0 |
| 20260504000020 | 8 | 288 | 0.0 | 4.8 | 0.00 | 0.00 | 0.00 | 54 | 1018.0 |
| 20260503235508 | 8 | 288 | 0.0 | 4.8 | 0.00 | 0.00 | 0.00 | 57 | 1017.9 |
| 20260503235007 | 8 | 288 | 0.0 | 4.8 | 0.00 | 0.00 | 0.00 | 55 | 1017.9 |
| 20260503234519 | 8 | 348 | 0.0 | 3.2 | 0.00 | 0.00 | 0.00 | 54 | 1017.9 |
| 20260503234008 | 8 | 348 | 0.0 | 0.0 | 0.00 | 0.00 | 0.00 | 54 | 1017.9 |
| 20260503233510 | 8 | 348 | 0.0 | 0.0 | 0.00 | 0.00 | 0.00 | 52 | 1017.9 |
| 20260503233026 | 9 | 355 | 0.0 | 0.0 | 0.00 | 0.00 | 0.00 | 54 | 1017.9 |
| 20260503232508 | 9 | 273 | 0.0 | 0.0 | 0.00 | 0.00 | 0.00 | 53 | 1017.9 |
| 20260503232008 | 9 | 266 | 0.0 | 3.2 | 0.00 | 0.00 | 0.00 | 52 | 1017.9 |
| 20260503231524 | 9 | 266 | 0.0 | 4.8 | 0.00 | 0.00 | 0.00 | 54 | 1017.8 |
| 20260503231007 | 9 | 266 | 0.0 | 4.8 | 0.00 | 0.00 | 0.00 | 56 | 1017.7 |
| 20260503230507 | 10 | 227 | 1.6 | 4.8 | 0.00 | 0.00 | 0.00 | 52 | 1017.6 |
| 20260503230004 | 10 | 252 | 0.0 | 8.0 | 0.00 | 0.00 | 0.00 | 52 | 1017.6 |
| 20260503225504 | 10 | 18 | 0.0 | 8.0 | 0.00 | 0.00 | 0.00 | 49 | 1017.5 |
| 20260503225007 | 10 | 264 | 0.0 | 4.8 | 0.00 | 0.00 | 0.00 | 52 | 1017.6 |
| 20260503224504 | 10 | 265 | 0.0 | 14.5 | 0.00 | 0.00 | 0.00 | 51 | 1017.6 |
| 20260503224003 | 10 | 199 | 0.0 | 14.5 | 0.00 | 0.00 | 0.00 | 52 | 1017.7 |
| 20260503223503 | 10 | 278 | 1.6 | 6.4 | 0.00 | 0.00 | 0.00 | 51 | 1017.6 |
| 20260503223004 | 10 | 240 | 0.0 | 3.2 | 0.00 | 0.00 | 0.00 | 50 | 1017.6 |
| 20260503222503 | 10 | 240 | 1.6 | 3.2 | 0.00 | 0.00 | 0.00 | 50 | 1017.7 |
| 20260503222005 | 10 | 240 | 0.0 | 4.8 | 0.00 | 0.00 | 0.00 | 49 | 1017.7 |
| 20260503221515 | 10 | 240 | 1.6 | 6.4 | 0.00 | 0.00 | 0.00 | 50 | 1017.7 |
| 20260503221010 | 11 | 256 | 0.0 | 6.4 | 0.00 | 0.00 | 0.00 | 49 | 1017.7 |
| 20260503220504 | 11 | 292 | 3.2 | 6.4 | 0.00 | 0.00 | 0.00 | 48 | 1017.7 |
| 20260503220012 | 11 | 278 | 1.6 | 6.4 | 0.00 | 0.00 | 0.00 | 48 | 1017.7 |
| 20260503215507 | 11 | 239 | 0.0 | 6.4 | 0.00 | 0.00 | 0.00 | 48 | 1017.7 |